Wind_Speed
7 6 6 6 6 5 4 3 3 3 2 2 2 2 3 3 4 4 5 5 5 5 5 7 8 9 9 9 9 9 10 10 10 10 9 9 8 8 8 7 7 7 7
7 6 6 5 5 5 4 3 3 3 3 2 2 3 3 3 4 4 5 5 5 6 6 7 8 8 9 9 9 10 10 11 11 11 11 11 11 10 10 10 9 9 9
9 7 6 5 5 4 4 3 3 3 3 3 3 2 2 3 3 3 4 4 5 5 6 7 7 8 9 10 10 10 10 10 12 12 12 13 12 12 12 12 12 12 12
10 9 8 6 6 5 4 3 3 3 3 3 2 2 2 3 3 3 3 4 4 5 6 6 6 7 8 9 10 11 10 10 11 12 13 14 14 14 14 14 14 13 13
11 10 9 8 7 6 5 4 3 3 3 3 2 2 2 3 3 3 3 3 4 4 5 5 6 7 7 8 9 10 11 11 12 12 13 14 15 14 15 15 15 15 15
12 11 10 9 8 6 6 5 4 4 3 3 3 3 3 2 2 2 2 3 3 4 4 5 6 6 7 7 8 9 10 11 12 12 13 14 14 15 15 16 16 17 18
13 12 11 10 9 8 7 6 5 5 4 3 3 3 2 2 1 1 1 2 3 3 4 4 5 6 7 7 8 9 10 11 12 12 13 14 15 15 16 16 17 17 18
14 13 12 11 10 9 8 7 6 5 5 4 3 3 2 2 2 2 2 2 3 4 4 4 5 6 6 7 8 9 10 10 11 12 13 14 14 15 16 17 18 18 18
15 14 13 12 10 9 8 8 7 6 5 4 3 2 2 2 2 2 3 3 4 4 5 5 6 6 7 7 8 9 10 10 11 12 13 14 14 15 16 17 18 19 19
16 16 14 13 11 10 9 8 8 7 6 5 4 3 3 2 2 3 4 4 5 5 5 6 7 7 8 9 9 10 10 11 12 12 13 14 15 16 17 18 19 20 20
17 16 15 14 13 11 10 9 8 7 6 5 5 4 4 4 4 4 5 5 6 6 7 7 8 9 9 10 10 11 11 12 12 13 14 14 15 16 17 18 19 20 21
17 16 15 14 13 12 10 9 8 7 7 6 6 5 5 5 6 6 6 6 7 7 8 9 9 10 11 11 12 12 13 13 14 15 15 16 16 17 17 19 20 21 22
17 16 15 14 13 12 11 10 9 8 8 8 8 7 7 7 8 8 8 8 8 9 10 11 11 12 12 13 14 14 14 15 15 16 17 17 18 18 19 20 20 21 22
17 17 16 15 14 13 12 11 10 9 9 9 9 9 9 9 9 9 10 10 11 11 12 13 13 14 14 15 15 16 16 16 17 17 18 18 19 20 20 21 22 22 22
18 17 17 16 15 14 13 12 11 11 11 11 11 10 11 11 11 12 12 13 13 14 14 15 16 17 17 17 18 18 18 19 19 19 19 20 20 21 21 22 22 23 24
19 18 18 17 16 15 14 13 12 12 12 13 13 13 13 14 14 15 15 16 16 17 17 18 19 20 20 20 21 21 21 21 21 21 22 22 22 22 22 23 23 24 25
19 18 18 17 17 16 15 15 15 15 15 15 15 16 17 17 18 18 19 19 19 20 20 21 21 22 23 23 24 24 24 24 24 24 24 24 24 25 25 25 25 25 26
19 19 18 18 18 18 17 17 18 18 18 18 19 19 20 20 21 22 22 22 23 23 23 24 24 25 25 26 26 27 27 27 27 27 27 27 27 27 27 27 27 27 27
18 19 18 18 19 20 20 21 21 21 22 22 22 23 24 24 25 25 25 26 26 27 27 27 27 27 28 28 28 29 29 29 29 29 29 29 29 29 29 29 29 29 29
19 19 20 20 21 22 23 23 23 24 24 25 26 26 27 27 28 28 29 29 29 30 30 30 30 31 31 30 30 31 31 31 32 32 31 31 31 31 31 31 31 31 31
20 20 21 22 23 24 24 25 25 26 27 28 29 30 30 30 31 31 31 32 32 32 33 33 33 33 34 34 34 33 34 34 34 35 34 34 34 34 34 34 33 34 34
22 23 24 25 26 27 27 27 28 29 30 31 32 32 33 33 34 35 35 35 35 35 35 35 35 36 36 37 37 36 36 36 36 37 37 37 37 37 37 36 36 36 36
24 25 26 27 28 29 30 30 31 31 32 33 34 35 35 36 36 36 37 37 38 38 38 38 38 38 39 39 40 39 39 39 39 39 39 39 40 39 39 39 39 39 38
25 27 28 29 30 31 32 33 33 33 34 34 35 36 37 38 38 38 39 39 39 39 40 40 40 40 41 41 42 42 42 42 41 41 42 41 41 42 42 41 42 41 41
28 28 29 30 31 32 33 34 34 35 35 36 36 37 38 39 40 40 40 40 40 41 42 42 43 43 43 44 44 44 45 45 44 44 45 45 44 45 45 45 45 45 44
30 30 31 32 32 33 34 35 35 36 37 38 39 40 40 41 41 42 43 43 43 43 44 44 45 45 46 46 47 47 48 48 48 47 48 48 48 48 47 47 48 48 48
Wind_Direction
258 267 267 265 268 272 271 268 248 222 232 238 235 242 243 243 238 231 231 243 250 246 251 252 249 249 251 251 250 247 246 244 242 242 243 245 246 246 248 249 251 247 246
241 249 258 254 252 259 262 261 241 228 239 240 237 251 255 248 245 244 244 248 249 252 257 262 260 254 254 255 257 255 252 248 246 245 245 246 248 249 249 251 253 253 251
235 240 247 241 237 245 253 254 238 227 237 241 240 248 250 250 252 245 243 247 251 254 260 267 271 265 258 258 261 261 260 257 254 250 248 248 250 251 251 253 254 253 253
235 237 236 236 234 238 246 243 234 234 233 236 233 234 243 251 248 244 247 256 259 261 267 274 274 272 269 267 267 264 263 263 264 260 255 254 254 256 255 254 255 254 254
229 229 229 231 232 232 234 231 229 234 227 223 216 219 232 239 244 246 252 256 263 268 272 277 280 279 276 274 274 270 268 267 269 269 265 262 259 259 259 258 257 257 257
227 225 226 226 226 227 229 229 226 225 220 212 204 205 216 231 233 237 244 259 271 278 280 281 283 283 283 281 278 273 273 271 272 273 270 268 267 264 263 262 261 260 260
221 221 222 223 225 226 226 225 219 212 209 203 202 200 201 210 222 249 265 272 278 285 289 290 290 290 288 288 288 284 281 278 276 276 275 272 271 270 267 264 263 263 261
217 217 219 220 223 222 219 217 212 206 200 198 194 187 191 203 225 254 282 286 286 288 294 298 300 296 294 295 294 292 288 285 281 279 279 277 274 272 271 269 267 266 265
213 213 213 216 217 213 210 203 199 195 198 201 200 202 212 228 238 261 279 286 291 290 291 295 300 301 300 301 300 296 292 289 286 282 281 279 277 275 274 272 270 267 266
211 210 211 214 213 209 206 201 200 201 205 208 214 224 232 247 263 274 280 282 289 295 298 299 301 301 303 303 302 299 296 293 291 288 284 281 279 277 276 275 273 271 268
209 209 210 212 209 205 204 204 204 208 214 219 226 238 250 267 279 283 286 286 289 293 298 301 299 299 301 302 300 299 297 295 293 291 288 285 283 281 279 277 276 273 272
206 205 207 206 205 204 206 207 209 215 224 231 239 250 259 270 280 283 287 290 292 294 296 300 301 301 300 300 299 298 296 295 293 292 290 288 287 286 283 280 277 275 274
203 203 204 205 205 206 209 213 217 224 231 240 248 258 266 274 281 284 287 289 292 293 296 299 301 301 300 299 298 297 297 297 295 293 291 290 288 287 286 284 281 279 276
202 202 205 205 208 211 215 220 223 230 239 248 254 262 269 274 279 282 285 286 287 289 292 295 296 296 298 298 297 297 296 297 296 295 293 292 290 288 286 285 284 282 279
205 205 207 207 211 215 220 226 231 238 248 255 259 263 267 272 275 278 281 284 286 286 287 290 292 293 294 295 296 295 295 294 294 293 293 293 292 290 288 286 284 283 281
209 210 210 212 216 221 227 235 241 246 253 258 261 264 269 272 275 278 281 283 284 285 285 287 288 289 290 291 292 292 291 291 291 291 290 290 291 290 289 287 285 283 282
213 213 215 218 224 231 238 243 249 253 256 260 264 268 270 274 276 278 280 282 283 283 283 284 284 285 287 288 288 289 289 289 289 289 289 288 288 288 288 287 286 284 282
220 221 223 227 233 238 244 250 255 258 261 264 267 270 272 275 277 278 279 281 282 282 283 283 283 283 284 285 285 286 287 287 287 288 288 287 287 287 287 287 286 285 284
227 226 230 236 242 246 252 256 258 262 263 266 269 272 274 276 278 279 280 281 282 282 283 283 283 283 282 283 283 284 284 284 284 285 285 285 285 285 285 285 285 284 284
233 235 239 243 248 254 257 259 262 264 266 269 271 274 276 277 279 281 283 283 283 283 283 283 284 283 283 283 283 283 283 283 283 284 284 284 284 283 283 283 284 284 284
239 242 246 250 253 257 261 263 265 266 268 270 272 275 277 278 281 282 283 284 284 283 283 283 284 283 282 282 282 282 282 282 282 282 283 283 283 283 282 283 283 284 284
244 247 252 255 258 261 263 265 267 268 270 272 274 276 277 279 280 281 282 282 282 282 282 282 282 282 282 282 282 283 283 282 281 281 282 282 283 283 282 282 283 283 283
249 253 256 259 262 265 266 267 269 271 272 274 275 277 278 278 279 281 282 282 282 282 282 282 282 282 282 283 283 283 282 282 281 280 280 281 281 281 281 282 282 282 282
255 257 260 262 264 267 269 270 270 271 273 275 276 277 278 279 279 280 280 282 283 282 282 281 282 282 282 282 282 282 282 281 280 280 280 280 281 281 280 281 281 281 281
258 260 263 265 266 268 270 271 271 271 273 275 277 278 279 279 278 280 281 282 283 282 282 282 282 282 282 282 282 282 281 281 280 279 279 280 280 279 280 280 280 280 280
259 262 264 265 266 268 270 271 272 273 273 274 276 277 279 280 280 280 281 281 282 283 282 282 282 282 282 282 283 283 282 282 281 280 280 280 279 279 279 279 279 280 279
Height
5879 5880 5881 5882 5882 5883 5884 5885 5885 5886 5887 5887 5887 5888 5888 5889 5889 5890 5891 5891 5892 5892 5893 5893 5893 5894 5894 5895 5895 5896 5897 5897 5898 5899 5899 5900 5901 5901 5902 5902 5903 5903 5904
5878 5879 5880 5881 5881 5882 5883 5884 5885 5885 5886 5886 5887 5887 5887 5888 5888 5889 5889 5890 5890 5891 5892 5892 5892 5892 5893 5893 5894 5894 5894 5895 5896 5896 5897 5898 5898 5899 5900 5900 5901 5902 5902
5876 5877 5878 5879 5880 5881 5882 5883 5884 5884 5885 5886 5886 5886 5887 5887 5887 5888 5889 5889 5889 5890 5890 5890 5891 5891 5891 5891 5891 5892 5892 5893 5893 5894 5894 5895 5896 5897 5897 5898 5899 5899 5900
5875 5876 5877 5878 5879 5880 5881 5882 5883 5884 5884 5885 5885 5886 5886 5886 5887 5887 5888 5888 5888 5888 5889 5889 5889 5889 5889 5889 5889 5889 5890 5890 5891 5891 5892 5892 5893 5894 5894 5895 5896 5897 5897
5873 5874 5876 5877 5878 5879 5881 5882 5882 5883 5884 5884 5885 5885 5886 5886 5886 5886 5887 5887 5887 5887 5888 5888 5888 5888 5888 5888 5888 5888 5888 5888 5888 5889 5889 5889 5890 5891 5891 5892 5893 5894 5894
5871 5873 5874 5876 5877 5878 5879 5881 5881 5882 5883 5884 5884 5884 5885 5885 5886 5886 5886 5886 5886 5886 5886 5886 5886 5886 5886 5886 5886 5886 5886 5886 5886 5886 5886 5887 5887 5887 5888 5889 5890 5890 5891
5869 5871 5873 5874 5876 5877 5878 5879 5880 5881 5882 5883 5884 5884 5885 5885 5885 5885 5885 5886 5886 5885 5885 5885 5885 5885 5885 5885 5884 5884 5884 5884 5884 5884 5884 5884 5884 5884 5885 5885 5886 5886 5887
5867 5869 5871 5873 5874 5876 5877 5878 5879 5880 5881 5882 5883 5884 5884 5885 5885 5885 5885 5885 5885 5884 5884 5884 5884 5884 5883 5883 5883 5882 5882 5881 5881 5881 5881 5881 5881 5881 5881 5882 5882 5882 5883
5865 5868 5869 5871 5873 5874 5876 5877 5878 5880 5881 5882 5882 5883 5884 5884 5884 5884 5884 5884 5884 5883 5883 5883 5883 5882 5882 5881 5881 5880 5880 5879 5878 5878 5878 5878 5878 5878 5878 5878 5878 5878 5879
5863 5866 5867 5869 5871 5873 5875 5876 5877 5879 5880 5881 5881 5882 5883 5883 5883 5883 5883 5883 5883 5882 5882 5881 5881 5880 5880 5879 5878 5878 5877 5877 5876 5875 5875 5875 5874 5874 5874 5874 5874 5873 5874
5861 5864 5866 5868 5870 5872 5873 5875 5876 5878 5879 5880 5880 5881 5882 5882 5882 5882 5882 5882 5881 5881 5880 5880 5879 5878 5878 5877 5876 5875 5875 5874 5873 5872 5872 5871 5870 5870 5870 5869 5869 5869 5869
5860 5862 5864 5867 5869 5870 5872 5874 5875 5876 5877 5878 5879 5880 5880 5880 5881 5881 5881 5880 5880 5879 5879 5878 5877 5876 5875 5874 5874 5873 5872 5871 5870 5869 5868 5867 5867 5866 5865 5865 5864 5864 5864
5858 5860 5863 5865 5867 5869 5871 5872 5874 5875 5876 5877 5878 5878 5878 5878 5879 5879 5879 5878 5878 5877 5876 5876 5875 5874 5873 5872 5870 5869 5868 5867 5866 5865 5864 5863 5862 5861 5861 5860 5859 5859 5859
5856 5859 5861 5863 5866 5868 5869 5871 5872 5873 5874 5875 5875 5876 5876 5876 5876 5876 5876 5876 5875 5875 5874 5873 5872 5871 5870 5868 5867 5866 5865 5864 5862 5861 5860 5859 5858 5857 5856 5855 5854 5854 5853
5855 5857 5859 5862 5864 5866 5868 5869 5870 5871 5872 5873 5873 5873 5873 5873 5873 5873 5873 5873 5873 5871 5870 5869 5868 5867 5866 5864 5863 5862 5861 5860 5858 5857 5856 5854 5853 5852 5851 5850 5849 5848 5847
5853 5856 5858 5860 5862 5864 5866 5867 5868 5869 5870 5870 5870 5871 5871 5870 5870 5870 5869 5869 5868 5868 5866 5865 5864 5863 5861 5860 5859 5857 5856 5855 5853 5852 5851 5849 5848 5847 5845 5844 5843 5842 5841
5851 5853 5855 5858 5860 5861 5863 5864 5865 5866 5866 5867 5867 5867 5867 5867 5866 5865 5865 5864 5863 5863 5862 5861 5859 5858 5856 5855 5853 5852 5850 5849 5848 5846 5845 5844 5842 5841 5839 5838 5837 5835 5834
5849 5851 5853 5855 5857 5858 5860 5861 5861 5862 5862 5863 5863 5862 5862 5862 5861 5861 5860 5859 5858 5857 5856 5855 5853 5852 5850 5849 5847 5846 5844 5843 5841 5840 5838 5837 5836 5834 5833 5832 5830 5829 5827
5846 5848 5850 5852 5853 5854 5855 5856 5857 5857 5857 5857 5857 5857 5857 5856 5856 5855 5854 5853 5852 5850 5849 5848 5846 5845 5844 5842 5841 5839 5837 5836 5834 5833 5831 5830 5828 5827 5825 5824 5823 5821 5820
5843 5845 5846 5848 5849 5850 5850 5851 5851 5851 5851 5851 5851 5851 5850 5850 5849 5848 5847 5846 5845 5844 5842 5841 5839 5838 5836 5834 5833 5831 5830 5828 5827 5825 5823 5822 5820 5819 5817 5816 5814 5813 5812
5839 5841 5842 5843 5844 5845 5845 5845 5845 5845 5845 5845 5844 5844 5843 5843 5842 5841 5839 5838 5837 5835 5834 5832 5831 5829 5827 5826 5824 5823 5821 5819 5818 5816 5815 5813 5811 5810 5808 5807 5805 5804 5803
5834 5836 5837 5838 5838 5839 5839 5839 5839 5838 5838 5837 5837 5836 5835 5834 5833 5832 5830 5829 5827 5826 5824 5823 5822 5820 5818 5816 5815 5813 5812 5810 5809 5807 5805 5803 5801 5800 5798 5797 5796 5794 5793
5830 5831 5831 5832 5832 5832 5832 5832 5832 5831 5830 5829 5828 5827 5826 5825 5824 5822 5821 5819 5818 5816 5815 5813 5812 5810 5808 5806 5804 5803 5801 5800 5798 5796 5794 5793 5791 5789 5787 5786 5785 5783 5782
5824 5824 5825 5825 5825 5825 5824 5824 5823 5823 5822 5821 5820 5818 5817 5815 5814 5812 5811 5809 5807 5805 5804 5802 5801 5799 5797 5795 5793 5791 5790 5788 5787 5785 5782 5782 5780 5778 5776 5774 5773 5772 5770
5817 5817 5817 5817 5817 5816 5816 5815 5814 5814 5813 5812 5810 5809 5807 5805 5803 5802 5800 5799 5797 5795 5792 5790 5789 5787 5785 5783 5781 5779 5777 5775 5774 5773 5770 5768 5767 5765 5764 5762 5760 5759 5758
5809 5809 5809 5808 5808 5807 5806 5805 5804 5803 5802 5801 5799 5798 5796 5794 5792 5790 5789 5787 5786 5783 5781 5779 5777 5775 5772 5770 5767 5765 5763 5761 5760 5759 5757 5754 5753 5751 5751 5750 5747 5744 5743